Location: Newark
(35.6833°N, 139.7500°E)
Time: 10:17:29
(UTC+00:00)

X-37B - Visible Passes

Search period start: 25 September 2020 00:00
Search period end: 05 October 2020 00:00
Orbit: 386 x 387 km, 45.0° (Epoch: 18 September)

Date Brightness Start Highest point End Pass type
(mag) Time Alt. Az. Time Alt. Az. Time Alt. Az.
25 Sep 3.1 18:27:42 19° ESE 18:27:42 19° ESE 18:28:48 10° ESE visible
25 Sep 2.6 20:00:10 10° WSW 20:01:56 14° SW 20:03:42 10° S visible
26 Sep 2.5 19:04:57 20° S 19:04:57 20° S 19:06:19 10° SSE visible
29 Sep 3.2 09:38:21 10° SSE 09:38:26 10° SSE 09:38:26 10° SSE visible
30 Sep 2.9 10:14:33 10° SW 10:15:36 19° SW 10:15:36 19° SW visible
01 Oct 1.8 09:16:28 10° SSW 09:19:10 26° SE 09:20:18 21° ESE visible
02 Oct 0.6 09:53:55 10° WSW 09:57:04 71° NNW 09:57:08 71° NNW visible
03 Oct 0.8 08:55:25 10° SW 08:58:31 55° SE 09:01:31 11° ENE visible
03 Oct 3.5 10:32:35 10° WNW 10:33:49 18° WNW 10:33:49 18° WNW visible
04 Oct 1.8 09:33:35 10° W 09:36:34 38° NNW 09:38:05 23° NNE visible
